Location: Slave Lake
(55.2830°N, 114.7830°W)
Time: 08:03:21
(UTC-06:00)

Amateur Radio Satellites - All Passes

Search period start: 29 July 2016 07:33
Search period end: 30 July 2016 07:33
Location: Slave Lake, 55.2830°N, 114.7830°W

Satellite Date Start Highest point End Downlink Frequencies (MHz)
Time Altitude Azimuth
HO-68 29 Jul 07:41:38 07:43:19 11° 76° (ENE) 07:45:00 435.675
CUBESAT XI-V 29 Jul 07:42:09 07:44:18 13° 276° (W) 07:46:29 437.345
BRITE-PL 29 Jul 07:53:17 07:58:02 83° 106° (ESE) 08:03:11 437.365/2234.400
PRISM 29 Jul 07:56:51 07:59:59 22° 58° (ENE) 08:03:08 437.425
HORYU 2 29 Jul 08:07:38 08:11:36 31° 299° (WNW) 08:15:31 437.375
NOAA 18 29 Jul 08:10:47 08:16:20 63° 103° (ESE) 08:21:50 137.9125
O/OREOS (USA 219) 29 Jul 08:18:29 08:20:24 13° 262° (W) 08:22:19 437.305
CINEMA 3 29 Jul 08:20:55 08:24:20 18° 86° (E) 08:27:43 145.822/145.860
AO-7 29 Jul 08:24:03 08:30:59 30° 320° (NW) 08:37:53 29.400- 29.500
DOVE 4 29 Jul 08:25:07 08:30:03 47° 98° (E) 08:35:09 437.250
STRAND 1 29 Jul 08:25:17 08:30:16 49° 260° (W) 08:35:17 437.568
Cubesat XI-IV 29 Jul 08:32:33 08:37:58 89° 291° (WNW) 08:43:19 437.490
LilacSat-2 29 Jul 08:33:46 08:37:38 65° 289° (WNW) 08:41:27 437.200
SO-50 29 Jul 08:40:09 08:44:21 29° 121° (ESE) 08:48:31 436.795
RS-15 29 Jul 08:42:56 08:54:35 79° 130° (SE) 09:06:51 29.354- 29.394
GOMX 1 29 Jul 08:43:46 08:48:44 76° 288° (WNW) 08:54:01 467.674
ANTELSAT 29 Jul 08:49:06 08:51:03 13° 47° (NE) 08:53:01 437.575/2403.000
CUTE-I 29 Jul 08:55:35 09:00:53 63° 293° (WNW) 09:06:08 437.470
CANX-2 29 Jul 08:59:14 09:02:52 27° 93° (E) 09:06:28 2200.000
YUBILEINY 29 Jul 09:02:47 09:09:34 26° 75° (ENE) 09:16:22 435.215
NOAA 15 29 Jul 09:08:19 09:13:16 42° 298° (WNW) 09:18:13 137.62
CUTE 1.7 + AOD 2 29 Jul 09:12:06 09:15:53 31° 94° (E) 09:19:39 437.475
CUBEBUG 2 29 Jul 09:12:42 09:15:46 17° 86° (E) 09:18:47 437.445
Cosmos 2491 29 Jul 09:20:29 09:29:18 83° 77° (ENE) 09:38:07 435.465 / 435.565
Cosmos 2504 29 Jul 09:21:44 09:25:08 13° 63° (ENE) 09:28:31 435.465 / 435.565
HO-68 29 Jul 09:26:06 09:33:02 47° 99° (E) 09:39:54 435.675
TIGRISAT 29 Jul 09:28:03 09:31:35 21° 55° (NE) 09:35:08 435.000
PRISM 29 Jul 09:30:58 09:35:00 60° 258° (WSW) 09:39:03 437.425
BRITE-PL 29 Jul 09:32:37 09:36:06 21° 304° (WNW) 09:39:47 437.365/2234.400
UNISAT 6 29 Jul 09:44:36 09:48:36 29° 60° (ENE) 09:52:38 437.425
SEEDS 29 Jul 09:46:47 09:50:52 47° 99° (E) 09:54:53 437.485
NOAA 18 29 Jul 09:51:52 09:56:43 32° 304° (NW) 10:01:32 137.9125
COMPASS 1 29 Jul 09:54:10 09:58:07 41° 98° (E) 10:02:02 437.405
CINEMA 3 29 Jul 09:57:05 10:02:09 89° 286° (WNW) 10:07:11 145.822/145.860
DOVE 4 29 Jul 10:03:02 10:07:41 37° 297° (WNW) 10:12:29 437.250
LilacSat-2 29 Jul 10:09:55 10:11:12 11° 309° (NW) 10:12:29 437.200
Cubesat XI-IV 29 Jul 10:13:24 10:17:26 22° 309° (NW) 10:21:26 437.490
FUNcube-1 29 Jul 10:14:19 10:18:05 25° 91° (E) 10:21:44 145.935
ZACube-1 29 Jul 10:16:32 10:20:26 28° 92° (E) 10:24:15 437.345
AO-7 29 Jul 10:16:38 10:21:18 16° 347° (NNW) 10:25:57 29.400- 29.500
SO-50 29 Jul 10:19:41 10:24:33 72° 322° (NW) 10:29:22 436.795
AAUSAT CUBESAT 2 29 Jul 10:20:02 10:24:08 59° 101° (ESE) 10:28:11 437.432
UWE-3 29 Jul 10:21:09 10:25:36 42° 97° (E) 10:29:55 435.000/436.395/437.385
ANTELSAT 29 Jul 10:22:15 10:26:49 53° 67° (ENE) 10:31:25 437.575/2403.000
GOMX 1 29 Jul 10:22:55 10:26:11 18° 307° (NW) 10:29:33 467.674
DELFI C3 29 Jul 10:23:38 10:25:57 15° 88° (E) 10:28:16 145.870
NANOSAT C BR1 29 Jul 10:25:56 10:28:18 15° 52° (NE) 10:30:41 145.865
DUCHIFAT 1 29 Jul 10:28:59 10:31:22 15° 52° (NE) 10:33:46 145.980
CANX-2 29 Jul 10:34:52 10:38:55 44° 293° (WNW) 10:42:56 2200.000
CUTE-I 29 Jul 10:36:46 10:40:02 17° 314° (NW) 10:43:17 437.470
CUTE 1.7 + AOD 2 29 Jul 10:47:53 10:51:50 39° 294° (WNW) 10:55:45 437.475
CUBEBUG 2 29 Jul 10:48:17 10:53:05 87° 286° (WNW) 10:57:44 437.445
QB50P1 29 Jul 10:48:38 10:51:55 22° 57° (ENE) 10:55:13 145.935-145.965
JAS-2 29 Jul 10:49:28 10:52:30 15° 46° (NE) 10:55:29 435.910
NOAA 15 29 Jul 10:49:58 10:51:51 12° 320° (NW) 10:53:43 137.62
Oscar 11 29 Jul 10:53:14 10:57:30 55° 101° (E) 11:01:44 145.826/435.025
POPSAT HIP 1 29 Jul 10:55:07 10:58:34 24° 59° (ENE) 11:02:02 437.405
RS-15 29 Jul 10:56:11 11:07:59 61° 340° (NNW) 11:20:15 29.354- 29.394
YUBILEINY 29 Jul 10:56:21 11:05:10 85° 100° (E) 11:14:05 435.215
TIGRISAT 29 Jul 11:03:05 11:07:47 79° 256° (WSW) 11:12:33 435.000
Cosmos 2504 29 Jul 11:08:01 11:16:20 47° 87° (E) 11:24:28 435.465 / 435.565
HUMSAT D 29 Jul 11:10:09 11:13:31 23° 91° (E) 11:16:49 437.325/437.525
HO-68 29 Jul 11:13:57 11:20:55 53° 301° (WNW) 11:27:50 435.675
QB50P2 29 Jul 11:16:05 11:20:00 36° 64° (ENE) 11:23:57 145.880/145.840
Cosmos 2491 29 Jul 11:18:02 11:25:17 31° 282° (WNW) 11:32:34 435.465 / 435.565
POLYITAN 1 29 Jul 11:18:42 11:22:38 37° 64° (ENE) 11:26:37 437.675
UNISAT 6 29 Jul 11:20:29 11:25:05 55° 260° (W) 11:29:45 437.425
SEEDS 29 Jul 11:22:52 11:26:24 26° 299° (WNW) 11:29:53 437.485
COMPASS 1 29 Jul 11:29:59 11:33:35 29° 297° (WNW) 11:37:10 437.405
M-CUBED/EXP-1 PRIME 29 Jul 11:31:34 11:35:51 33° 101° (ESE) 11:40:07 437.505
CINEMA 3 29 Jul 11:35:01 11:38:41 21° 306° (NW) 11:42:21 145.822/145.860
FUNcube-1 29 Jul 11:50:12 11:54:38 53° 292° (WNW) 11:58:56 145.935
Oscar 19 29 Jul 11:51:12 11:53:55 15° 45° (NE) 11:56:39 437.125/150
ZACube-1 29 Jul 11:52:34 11:56:58 49° 293° (WNW) 12:01:15 437.345
AUBIESAT-1 29 Jul 11:55:28 11:59:56 44° 105° (ESE) 12:04:22 437.475
AAUSAT CUBESAT 2 29 Jul 11:56:06 11:59:19 22° 301° (WNW) 12:02:30 437.432
DELFI C3 29 Jul 11:57:22 12:01:19 76° 289° (WNW) 12:05:16 145.870
UWE-3 29 Jul 11:57:47 12:02:00 34° 297° (WNW) 12:06:06 435.000/436.395/437.385
NANOSAT C BR1 29 Jul 11:59:07 12:03:22 76° 71° (ENE) 12:07:40 145.865
ANTELSAT 29 Jul 11:59:46 12:03:47 28° 268° (W) 12:07:52 437.575/2403.000
SO-50 29 Jul 12:01:24 12:05:44 31° 344° (NNW) 12:09:59 436.795
DUCHIFAT 1 29 Jul 12:02:10 12:06:24 76° 72° (ENE) 12:10:42 145.980
AO-7 29 Jul 12:06:15 12:11:00 17° 15° (NNE) 12:15:46 29.400- 29.500
BUGSAT 1 29 Jul 12:06:39 12:10:35 44° 66° (ENE) 12:14:35 437.445
QB50P1 29 Jul 12:23:06 12:27:20 65° 257° (WSW) 12:31:38 145.935-145.965
CUBEBUG 2 29 Jul 12:25:48 12:29:04 19° 307° (NW) 12:32:17 437.445
ESTCUBE 1 29 Jul 12:26:11 12:29:58 26° 93° (E) 12:33:43 437.505/2401.250
CUBEBUG 1 29 Jul 12:27:08 12:30:19 19° 89° (E) 12:33:31 437.445
Oscar 11 29 Jul 12:29:51 12:33:23 25° 301° (WNW) 12:36:55 145.826/435.025
POPSAT HIP 1 29 Jul 12:29:52 12:34:04 57° 258° (WSW) 12:38:20 437.405
JAS-2 29 Jul 12:31:11 12:36:47 62° 67° (ENE) 12:41:57 435.910
VELOX 1 29 Jul 12:32:33 12:35:44 19° 89° (E) 12:38:54 145.980
50 SAT 29 Jul 12:39:37 12:42:15 19° 91° (E) 12:44:52 437.505
TIGRISAT 29 Jul 12:42:47 12:45:16 14° 276° (W) 12:47:47 435.000
HUMSAT D 29 Jul 12:45:19 12:49:28 53° 291° (WNW) 12:53:30 437.325/437.525
AIST 1 29 Jul 12:47:04 12:48:31 12° 79° (E) 12:50:00
QB50P2 29 Jul 12:51:54 12:55:50 35° 264° (W) 12:59:49 145.880/145.840
POLYITAN 1 29 Jul 12:54:33 12:58:29 35° 264° (W) 13:02:27 437.675
YUBILEINY 29 Jul 12:55:22 13:03:08 33° 305° (NW) 13:10:59 435.215
Cosmos 2504 29 Jul 13:00:51 13:09:38 59° 290° (WNW) 13:18:12 435.465 / 435.565
HO-68 29 Jul 13:02:27 13:07:15 20° 324° (NW) 13:12:03 435.675
M-CUBED/EXP-1 PRIME 29 Jul 13:05:59 13:10:29 48° 301° (WNW) 13:15:01 437.505
DX 1 29 Jul 13:08:03 13:11:51 28° 94° (E) 13:15:37 434.975-435.025
RS-15 29 Jul 13:10:52 13:22:50 57° 13° (NNE) 13:35:03 29.354- 29.394
UKube-1 29 Jul 13:16:55 13:20:39 27° 94° (E) 13:24:21 .
AISAT 29 Jul 13:17:03 13:21:21 45° 99° (E) 13:25:38 437.250
Oscar 19 29 Jul 13:27:17 13:32:17 56° 67° (ENE) 13:37:19 437.125/150
FUNcube-1 29 Jul 13:28:16 13:29:56 12° 313° (NW) 13:31:35 145.935
Gurwin Techsat 1B 29 Jul 13:28:56 13:33:40 34° 59° (ENE) 13:38:26 435.225
AUBIESAT-1 29 Jul 13:30:04 13:34:18 37° 304° (NW) 13:38:35 437.475
ITAMSAT 1 29 Jul 13:30:17 13:33:39 18° 48° (NE) 13:37:00 435.822/435.867
ZACube-1 29 Jul 13:30:57 13:32:15 11° 314° (NW) 13:33:33 437.345
DELFI C3 29 Jul 13:33:40 13:35:32 13° 307° (NW) 13:37:25 145.870
NANOSAT C BR1 29 Jul 13:36:49 13:39:38 17° 272° (W) 13:42:28 145.865
DUCHIFAT 1 29 Jul 13:39:52 13:42:38 17° 272° (W) 13:45:26 145.980
BUGSAT 1 29 Jul 13:42:35 13:46:08 27° 266° (W) 13:49:45 437.445
SO-50 29 Jul 13:43:15 13:47:24 28° 8° (N) 13:51:27 436.795
SPROUT 29 Jul 13:45:02 13:49:10 42° 98° (E) 13:53:17 437.525
AO-7 29 Jul 13:54:20 14:01:22 32° 41° (NE) 14:08:24 29.400- 29.500
CUSAT 1 29 Jul 13:56:48 13:58:37 15° 65° (ENE) 14:00:36 437.405
CUBEBUG 1 29 Jul 14:02:41 14:07:05 69° 289° (WNW) 14:11:29 437.445
ESTCUBE 1 29 Jul 14:02:41 14:07:04 52° 292° (WNW) 14:11:25 437.505/2401.250
QB50P1 29 Jul 14:03:38 14:04:00 10° 277° (W) 14:04:23 145.935-145.965
Cosmos 2499 29 Jul 14:06:55 14:09:47 12° 63° (ENE) 14:12:36 435.465 / 435.565
VELOX 1 29 Jul 14:08:15 14:12:42 72° 289° (WNW) 14:17:09 145.980
50 SAT 29 Jul 14:12:39 14:16:10 50° 291° (WNW) 14:19:40 437.505
AO-85 29 Jul 14:14:53 14:19:26 30° 121° (ESE) 14:23:49 145.980
JAS-2 29 Jul 14:17:31 14:22:18 27° 267° (W) 14:26:49 435.910
AIST 1 29 Jul 14:21:05 14:25:20 78° 99° (E) 14:29:39
HUMSAT D 29 Jul 14:23:03 14:24:12 11° 312° (NW) 14:25:20 437.325/437.525
TISAT 1 29 Jul 14:31:06 14:34:59 33° 96° (E) 14:38:52 437.305
M-CUBED/EXP-1 PRIME 29 Jul 14:41:51 14:44:05 14° 320° (NW) 14:46:21 437.505
DX 1 29 Jul 14:44:02 14:48:15 47° 294° (WNW) 14:52:27 434.975-435.025
DANDE 29 Jul 14:44:21 14:45:48 14° 62° (ENE) 14:47:16 436.750
HO-68 29 Jul 14:51:50 14:52:21 10° 350° (N) 14:52:51 435.675
UKube-1 29 Jul 14:52:45 14:56:55 47° 294° (WNW) 15:01:04 .
AISAT 29 Jul 14:53:47 14:57:44 31° 299° (WNW) 15:01:39 437.250
ITUPSAT 1 29 Jul 14:55:12 14:58:03 15° 86° (E) 15:00:52 437.325
Cosmos 2504 29 Jul 14:58:44 15:05:09 21° 316° (NW) 15:11:25 435.465 / 435.565
YUBILEINY 29 Jul 14:59:44 15:03:41 13° 336° (NNW) 15:07:38 435.215
GONETS M04 29 Jul 15:06:27 15:13:54 34° 80° (E) 15:21:25
AUBIESAT-1 29 Jul 15:06:30 15:07:41 11° 324° (NW) 15:08:53 437.475
ITAMSAT 1 29 Jul 15:07:07 15:12:18 69° 69° (ENE) 15:17:31 435.822/435.867
Oscar 19 29 Jul 15:07:29 15:11:56 29° 267° (W) 15:16:25 437.125/150
Gurwin Techsat 1B 29 Jul 15:08:15 15:13:28 54° 259° (W) 15:18:43 435.225
SPROUT 29 Jul 15:21:12 15:25:02 31° 298° (WNW) 15:28:50 437.525
SO-50 29 Jul 15:24:08 15:28:47 52° 32° (NNE) 15:33:19 436.795
RS-15 29 Jul 15:24:23 15:36:45 89° 39° (NE) 15:49:09 29.354- 29.394
CUSAT 1 29 Jul 15:38:00 15:40:43 37° 260° (W) 15:43:56 437.405
CUBEBUG 1 29 Jul 15:40:19 15:42:39 14° 309° (NW) 15:44:59 437.445
ESTCUBE 1 29 Jul 15:41:23 15:42:57 12° 313° (NW) 15:44:31 437.505/2401.250
AO-7 29 Jul 15:44:50 15:53:13 81° 65° (ENE) 16:01:38 29.400- 29.500
SWISSCUBE 29 Jul 15:45:54 15:50:26 41° 98° (E) 15:54:56 437.505
VELOX 1 29 Jul 15:45:58 15:48:28 15° 309° (NW) 15:50:59 145.980
Cosmos 2499 29 Jul 15:52:32 16:00:45 45° 87° (E) 16:08:36 435.465 / 435.565
AO-85 29 Jul 15:54:24 15:59:40 75° 320° (NW) 16:04:36 145.980
AIST 1 29 Jul 16:00:38 16:03:32 17° 301° (WNW) 16:06:28
HORYU 2 29 Jul 16:00:46 16:04:01 20° 54° (NE) 16:07:17 437.375
TISAT 1 29 Jul 16:06:44 16:10:42 38° 296° (WNW) 16:14:39 437.305
BEESAT 29 Jul 16:06:54 16:11:37 56° 101° (ESE) 16:16:18 436.000
DX 1 29 Jul 16:22:35 16:23:29 11° 315° (NW) 16:24:23 434.975-435.025
MOZHAYETS 4 29 Jul 16:24:46 16:27:45 17° 87° (E) 16:30:42
DANDE 29 Jul 16:26:23 16:28:42 28° 263° (W) 16:31:08 436.750
NOAA 18 29 Jul 16:27:21 16:30:12 14° 41° (NE) 16:33:02 137.9125
UKube-1 29 Jul 16:31:12 16:32:00 10° 314° (NW) 16:32:49 .
ITUPSAT 1 29 Jul 16:31:49 16:36:39 85° 104° (ESE) 16:41:26 437.325
HO-68 29 Jul 16:34:59 16:37:02 11° 17° (NNE) 16:39:04 435.675
Cubesat XI-IV 29 Jul 16:45:06 16:48:18 16° 45° (NE) 16:51:28 437.490
ITAMSAT 1 29 Jul 16:48:02 16:52:17 25° 269° (W) 16:56:32 435.822/435.867
Gurwin Techsat 1B 29 Jul 16:53:44 16:54:41 10° 280° (W) 16:55:37 435.225
GONETS M04 29 Jul 17:01:21 17:10:03 76° 285° (WNW) 17:18:52
YUBILEINY 29 Jul 17:04:04 17:06:01 11° 11° (NNE) 17:07:58 435.215
SO-50 29 Jul 17:04:49 17:09:16 42° 234° (SW) 17:13:33 436.795
KKS-1 29 Jul 17:06:49 17:10:52 32° 95° (E) 17:14:55 437.445
CUTE-I 29 Jul 17:06:50 17:10:47 21° 50° (NE) 17:14:44 437.470
NOAA 15 29 Jul 17:17:20 17:21:45 28° 56° (NE) 17:26:12 137.62
SWISSCUBE 29 Jul 17:23:51 17:28:13 37° 298° (WNW) 17:32:34 437.505
BRITE-PL 29 Jul 17:34:13 17:37:54 31° 62° (ENE) 17:41:43 437.365/2234.400
HORYU 2 29 Jul 17:35:35 17:40:06 81° 255° (WSW) 17:44:38 437.375
AO-85 29 Jul 17:36:13 17:40:48 32° 342° (NNW) 17:45:06 145.980
RS-15 29 Jul 17:37:15 17:48:11 40° 250° (WSW) 17:59:05 29.354- 29.394
STARS 29 Jul 17:38:00 17:42:05 34° 96° (E) 17:46:07 437.465
AO-7 29 Jul 17:39:34 17:46:53 33° 267° (W) 17:54:15 29.400- 29.500
Cosmos 2499 29 Jul 17:44:59 17:53:43 61° 289° (WNW) 18:02:04 435.465 / 435.565
BEESAT 29 Jul 17:45:06 17:49:11 29° 302° (WNW) 17:53:14 436.000
LilacSat-2 29 Jul 17:48:58 17:52:09 25° 62° (ENE) 17:55:22 437.200
CUBESAT XI-V 29 Jul 17:51:25 17:54:28 17° 87° (E) 17:57:29 437.345
MOZHAYETS 4 29 Jul 18:00:56 18:05:33 83° 286° (WNW) 18:10:07
DOVE 4 29 Jul 18:02:06 18:05:15 19° 53° (NE) 18:08:33 437.250
NOAA 18 29 Jul 18:04:23 18:09:42 49° 62° (ENE) 18:15:03 137.9125
ITUPSAT 1 29 Jul 18:10:28 18:13:58 21° 307° (NW) 18:17:26 437.325
HO-68 29 Jul 18:16:51 18:22:23 25° 42° (NE) 18:27:54 435.675
GOMX 1 29 Jul 18:21:48 18:25:51 41° 65° (ENE) 18:30:09 467.674
Cubesat XI-IV 29 Jul 18:22:08 18:27:25 60° 66° (ENE) 18:32:43 437.490
CANX-2 29 Jul 18:27:23 18:27:46 10° 48° (NE) 18:28:10 2200.000
CUTE 1.7 + AOD 2 29 Jul 18:39:10 18:40:32 11° 49° (NE) 18:41:54 437.475
KKS-1 29 Jul 18:43:19 18:47:34 42° 296° (WNW) 18:51:49 437.445
CUTE-I 29 Jul 18:44:47 18:50:11 84° 71° (ENE) 18:55:36 437.470
NOAA 15 29 Jul 18:56:00 19:01:13 66° 257° (WSW) 19:06:28 137.62
Cosmos 2504 29 Jul 18:58:50 19:01:37 12° 22° (NNE) 19:04:21 435.465 / 435.565
YUBILEINY 29 Jul 19:00:43 19:07:26 23° 44° (NE) 19:14:06 435.215
GONETS M04 29 Jul 19:01:34 19:08:35 26° 311° (NW) 19:15:41
SEEDS 29 Jul 19:11:48 19:14:16 15° 54° (NE) 19:16:45 437.485
BRITE-PL 29 Jul 19:12:30 19:16:23 38° 263° (W) 19:20:25 437.365/2234.400
STARS 29 Jul 19:14:21 19:18:31 40° 296° (WNW) 19:22:40 437.465
HORYU 2 29 Jul 19:15:07 19:17:24 14° 274° (W) 19:19:43 437.375
AO-85 29 Jul 19:18:18 19:22:29 27° 6° (N) 19:26:23 145.980
COMPASS 1 29 Jul 19:18:46 19:20:49 13° 52° (NE) 19:22:52 437.405
LilacSat-2 29 Jul 19:22:31 19:26:17 45° 261° (W) 19:30:04 437.200
CUBESAT XI-V 29 Jul 19:27:49 19:32:28 83° 289° (WNW) 19:37:06 437.345
CINEMA 3 29 Jul 19:29:08 19:33:21 33° 61° (ENE) 19:37:44 145.822/145.860
BEESAT 3 29 Jul 19:36:20 19:40:09 50° 129° (SE) 19:44:00 437.485
PCSat 29 Jul 19:36:30 19:41:08 29° 114° (ESE) 19:45:46 145.827
DOVE 4 29 Jul 19:37:52 19:42:20 88° 263° (W) 19:47:07 437.250
MOZHAYETS 4 29 Jul 19:39:08 19:42:05 17° 308° (NW) 19:45:03
Cosmos 2499 29 Jul 19:42:33 19:48:51 21° 315° (NW) 19:54:57 435.465 / 435.565
AAUSAT CUBESAT 2 29 Jul 19:43:23 19:46:06 17° 56° (NE) 19:48:50 437.432
FUNcube-1 29 Jul 19:44:09 19:45:21 11° 46° (NE) 19:46:33 145.935
NOAA 18 29 Jul 19:45:22 19:50:31 38° 263° (W) 19:55:43 137.9125
ZACube-1 29 Jul 19:46:08 19:47:50 12° 47° (NE) 19:49:31 437.345
BEESAT 2 29 Jul 19:48:20 19:52:02 39° 126° (SE) 19:55:48 435.950
UWE-3 29 Jul 19:50:30 19:53:28 17° 52° (NE) 19:56:28 435.000/436.395/437.385
CANX-2 29 Jul 19:58:35 20:02:42 48° 68° (ENE) 20:06:49 2200.000
GOMX 1 29 Jul 20:00:19 20:04:08 31° 267° (W) 20:08:10 467.674
HO-68 29 Jul 20:01:56 20:09:05 71° 65° (ENE) 20:16:17 435.675
Cubesat XI-IV 29 Jul 20:03:12 20:07:52 29° 267° (W) 20:12:34 437.490
CUTE 1.7 + AOD 2 29 Jul 20:11:21 20:15:32 55° 69° (ENE) 20:19:43 437.475
CUBEBUG 2 29 Jul 20:17:07 20:21:17 32° 61° (ENE) 20:25:31 437.445
Oscar 11 29 Jul 20:20:21 20:23:24 19° 56° (NE) 20:26:28 145.826/435.025
CUTE-I 29 Jul 20:26:59 20:30:56 20° 272° (W) 20:34:54 437.470
STRAND 1 29 Jul 20:28:12 20:32:52 34° 95° (E) 20:37:29 437.568
Cosmos 2491 29 Jul 20:37:34 20:43:33 21° 71° (ENE) 20:49:32 435.465 / 435.565
AIST 2 29 Jul 20:38:55 20:39:42 10° 110° (ESE) 20:40:28 435.215
NOAA 15 29 Jul 20:39:43 20:42:03 13° 277° (W) 20:44:25 137.62
SEEDS 29 Jul 20:45:09 20:49:22 83° 76° (ENE) 20:53:37 437.485
M-CUBED/EXP-1 PRIME 29 Jul 20:51:20 20:54:35 23° 49° (NE) 20:58:03 437.505
COMPASS 1 29 Jul 20:51:31 20:55:41 72° 73° (ENE) 20:59:51 437.405
Cosmos 2504 29 Jul 20:51:36 20:58:43 29° 53° (NE) 21:05:23 435.465 / 435.565
O/OREOS (USA 219) 29 Jul 20:57:06 21:01:00 30° 108° (ESE) 21:04:56 437.305
YUBILEINY 29 Jul 20:57:29 21:06:20 65° 72° (ENE) 21:15:05 435.215
AO-85 29 Jul 20:59:20 21:03:56 47° 30° (NNE) 21:08:09 145.980
CINEMA 3 29 Jul 21:05:53 21:10:22 46° 263° (W) 21:15:06 145.822/145.860
CUBESAT XI-V 29 Jul 21:06:15 21:09:14 17° 307° (NW) 21:12:13 437.345
PRISM 29 Jul 21:06:52 21:08:23 12° 86° (E) 21:09:53 437.425
GONETS M04 29 Jul 21:07:08 21:09:41 11° 344° (NNW) 21:12:14
BEESAT 3 29 Jul 21:14:14 21:17:58 39° 330° (NNW) 21:21:43 437.485
AUBIESAT-1 29 Jul 21:14:28 21:18:02 29° 52° (NE) 21:21:49 437.475
DELFI C3 29 Jul 21:16:03 21:19:18 25° 61° (ENE) 21:22:33 145.870
FUNcube-1 29 Jul 21:16:12 21:20:35 47° 67° (ENE) 21:25:00 145.935
AAUSAT CUBESAT 2 29 Jul 21:16:56 21:21:06 83° 254° (WSW) 21:25:16 437.432
DOVE 4 29 Jul 21:18:16 21:20:52 15° 277° (W) 21:23:34 437.250
ZACube-1 29 Jul 21:18:43 21:23:10 51° 68° (ENE) 21:27:39 437.345
PCSat 29 Jul 21:18:43 21:24:09 73° 315° (NW) 21:29:37 145.827
UWE-3 29 Jul 21:24:36 21:29:14 79° 74° (ENE) 21:33:58 435.000/436.395/437.385
BEESAT 2 29 Jul 21:26:01 21:29:52 45° 327° (NNW) 21:33:45 435.950
CANX-2 29 Jul 21:35:12 21:38:47 26° 267° (W) 21:42:23 2200.000
ISS 29 Jul 21:38:12 21:39:30 12° 144° (SE) 21:40:48 145.825
CUTE 1.7 + AOD 2 29 Jul 21:48:19 21:51:42 22° 269° (W) 21:55:06 437.475
HO-68 29 Jul 21:51:01 21:57:24 34° 267° (W) 22:03:51 435.675
CUBEBUG 2 29 Jul 21:53:15 21:57:46 47° 262° (W) 22:02:24 437.445
Oscar 11 29 Jul 21:54:42 21:59:04 80° 254° (WSW) 22:03:27 145.826/435.025
ESTCUBE 1 29 Jul 21:59:03 22:00:50 12° 48° (NE) 22:02:37 437.505/2401.250
STRAND 1 29 Jul 22:07:18 22:12:14 48° 296° (WNW) 22:17:08 437.568
HUMSAT D 29 Jul 22:07:50 22:11:52 40° 66° (ENE) 22:15:55 437.325/437.525
AIST 2 29 Jul 22:13:17 22:17:19 57° 131° (SE) 22:21:24 435.215
SEEDS 29 Jul 22:23:12 22:25:40 15° 273° (W) 22:28:10 437.485
M-CUBED/EXP-1 PRIME 29 Jul 22:24:42 22:28:42 69° 250° (WSW) 22:33:05 437.505
COMPASS 1 29 Jul 22:28:57 22:31:44 17° 272° (W) 22:34:32 437.405
Cosmos 2491 29 Jul 22:30:15 22:38:54 73° 95° (E) 22:47:35 435.465 / 435.565
O/OREOS (USA 219) 29 Jul 22:35:54 22:40:16 49° 309° (NW) 22:44:39 437.305
DX 1 29 Jul 22:37:14 22:39:05 13° 48° (NE) 22:40:57 434.975-435.025
AO-85 29 Jul 22:40:04 22:44:26 45° 234° (SW) 22:48:27 145.980
PRISM 29 Jul 22:40:17 22:44:25 79° 107° (ESE) 22:48:31 437.425
Cosmos 2504 29 Jul 22:45:01 22:53:24 90° 96° (E) 23:01:05 435.465 / 435.565
UKube-1 29 Jul 22:45:20 22:47:03 12° 48° (NE) 22:48:47 .
AISAT 29 Jul 22:46:40 22:49:42 18° 54° (NE) 22:52:45 437.250
AUBIESAT-1 29 Jul 22:48:20 22:52:17 50° 254° (WSW) 22:56:33 437.475
TIGRISAT 29 Jul 22:48:35 22:51:15 15° 85° (E) 22:53:54 435.000
DELFI C3 29 Jul 22:50:06 22:53:58 47° 260° (W) 22:57:50 145.870
FUNcube-1 29 Jul 22:52:59 22:57:00 30° 267° (W) 23:01:04 145.935
BEESAT 3 29 Jul 22:53:29 22:56:34 21° 354° (N) 22:59:39 437.485
YUBILEINY 29 Jul 22:54:45 23:02:48 41° 276° (W) 23:10:47 435.215
AAUSAT CUBESAT 2 29 Jul 22:55:31 22:57:17 12° 275° (W) 22:59:04 437.432
ZACube-1 29 Jul 22:55:47 22:59:42 27° 268° (W) 23:03:39 437.345
UWE-3 29 Jul 23:03:01 23:06:17 19° 273° (W) 23:09:35 435.000/436.395/437.385
PCSat 29 Jul 23:03:38 23:08:24 30° 339° (NNW) 23:13:11 145.827
BEESAT 2 29 Jul 23:05:21 23:08:33 22° 350° (N) 23:11:45 435.950
UNISAT 6 29 Jul 23:05:23 23:08:58 21° 89° (E) 23:12:29 437.425
GONETS M04 29 Jul 23:09:00 23:12:04 12° 19° (NNE) 23:15:09
SPROUT 29 Jul 23:11:43 23:14:15 16° 52° (NE) 23:16:47 437.525
ISS 29 Jul 23:12:17 23:15:14 32° 163° (SSE) 23:18:11 145.825
50 SAT 29 Jul 23:23:48 23:26:54 27° 63° (ENE) 23:30:01 437.505
CUBEBUG 1 29 Jul 23:29:41 23:33:41 38° 64° (ENE) 23:37:43 437.445
ESTCUBE 1 29 Jul 23:32:23 23:36:46 55° 68° (ENE) 23:41:10 437.505/2401.250
Oscar 11 29 Jul 23:33:57 23:35:57 13° 275° (W) 23:37:57 145.826/435.025
VELOX 1 29 Jul 23:36:24 23:40:30 40° 64° (ENE) 23:44:38 145.980
Cosmos 2499 29 Jul 23:42:50 23:44:35 11° 21° (NNE) 23:46:20 435.465 / 435.565
ANTELSAT 29 Jul 23:43:17 23:47:44 42° 97° (E) 23:52:04 437.575/2403.000
HUMSAT D 29 Jul 23:43:44 23:47:36 31° 265° (W) 23:51:28 437.325/437.525
STRAND 1 29 Jul 23:48:06 23:50:20 13° 317° (NW) 23:52:34 437.568
AIST 2 29 Jul 23:52:07 23:56:00 38° 332° (NNW) 23:59:56 435.215
TISAT 1 29 Jul 23:56:47 23:58:39 13° 50° (NE) 00:00:31 437.305
QB50P1 30 Jul 00:01:49 00:04:02 14° 86° (E) 00:06:15 145.935-145.965
M-CUBED/EXP-1 PRIME 30 Jul 00:03:02 00:04:09 11° 272° (W) 00:05:19 437.505
POPSAT HIP 1 30 Jul 00:08:17 00:10:53 15° 87° (E) 00:13:28 437.405
DX 1 30 Jul 00:10:12 00:14:28 59° 69° (ENE) 00:18:45 434.975-435.025
PRISM 30 Jul 00:16:29 00:19:15 18° 305° (NW) 00:22:02 437.425
O/OREOS (USA 219) 30 Jul 00:18:02 00:20:46 16° 333° (NNW) 00:23:31 437.305
UKube-1 30 Jul 00:18:02 00:22:16 57° 68° (ENE) 00:26:31 .
AIST 1 30 Jul 00:20:23 00:24:33 44° 71° (ENE) 00:28:45
AISAT 30 Jul 00:21:14 00:25:39 86° 253° (WSW) 00:30:07 437.250
TIGRISAT 30 Jul 00:24:00 00:28:42 86° 102° (ESE) 00:33:17 435.000
Cosmos 2491 30 Jul 00:28:35 00:36:32 38° 301° (WNW) 00:44:34 435.465 / 435.565
QB50P2 30 Jul 00:29:24 00:32:57 24° 92° (E) 00:36:28 145.880/145.840
BEESAT 3 30 Jul 00:32:00 00:35:21 25° 17° (NNE) 00:38:42 437.485
POLYITAN 1 30 Jul 00:32:01 00:35:36 25° 92° (E) 00:39:08 437.675
ITUPSAT 1 30 Jul 00:35:33 00:36:05 10° 42° (NE) 00:36:38 437.325
Cosmos 2504 30 Jul 00:39:17 00:45:42 26° 284° (WNW) 00:51:46 435.465 / 435.565
UNISAT 6 30 Jul 00:41:30 00:46:09 67° 290° (WNW) 00:50:41 437.425
BEESAT 2 30 Jul 00:44:13 00:47:31 24° 14° (NNE) 00:50:49 435.950
SPROUT 30 Jul 00:45:15 00:49:33 80° 71° (ENE) 00:53:53 437.525
ISS 30 Jul 00:48:11 00:51:18 43° 183° (S) 00:54:26 145.825
PCSat 30 Jul 00:48:59 00:53:23 24° 5° (N) 00:57:48 145.827
YUBILEINY 30 Jul 00:55:48 00:56:56 10° 301° (WNW) 00:58:04 435.215
50 SAT 30 Jul 00:57:04 01:00:28 36° 262° (W) 01:03:52 437.505
GONETS M04 30 Jul 01:05:35 01:12:58 29° 51° (NE) 01:20:21
CUBEBUG 1 30 Jul 01:06:06 01:10:02 34° 264° (W) 01:14:02 437.445
ESTCUBE 1 30 Jul 01:10:13 01:13:54 24° 268° (W) 01:17:36 437.505/2401.250
NANOSAT C BR1 30 Jul 01:11:54 01:16:06 51° 100° (E) 01:20:16 145.865
VELOX 1 30 Jul 01:13:04 01:17:03 33° 264° (W) 01:21:05 145.980
DUCHIFAT 1 30 Jul 01:14:37 01:18:49 51° 100° (E) 01:22:59 145.980
BUGSAT 1 30 Jul 01:16:26 01:20:09 28° 94° (E) 01:23:50 437.445
JAS-2 30 Jul 01:16:41 01:21:06 26° 92° (E) 01:25:43 435.910
ANTELSAT 30 Jul 01:20:10 01:24:23 35° 298° (WNW) 01:28:32 437.575/2403.000
SWISSCUBE 30 Jul 01:23:10 01:26:48 22° 54° (NE) 01:30:26 437.505
TISAT 1 30 Jul 01:29:21 01:33:31 63° 70° (ENE) 01:37:45 437.305
AIST 2 30 Jul 01:32:10 01:35:28 22° 355° (N) 01:38:47 435.215
Oscar 19 30 Jul 01:33:25 01:35:03 11° 81° (E) 01:36:41 437.125/150
Cosmos 2499 30 Jul 01:34:46 01:41:26 27° 52° (NE) 01:47:41 435.465 / 435.565
QB50P1 30 Jul 01:36:09 01:40:30 86° 105° (ESE) 01:44:48 145.935-145.965
POPSAT HIP 1 30 Jul 01:42:56 01:47:17 84° 288° (WNW) 01:51:34 437.405
BEESAT 30 Jul 01:43:38 01:47:40 28° 58° (ENE) 01:51:42 436.000
DX 1 30 Jul 01:47:39 01:51:02 22° 269° (W) 01:54:26 434.975-435.025
UKube-1 30 Jul 01:55:16 01:58:40 22° 268° (W) 02:02:05 .
AIST 1 30 Jul 01:58:19 02:02:01 27° 271° (W) 02:05:42
AISAT 30 Jul 02:00:31 02:02:50 14° 274° (W) 02:05:12 437.250
TIGRISAT 30 Jul 02:01:31 02:04:50 20° 306° (NW) 02:08:07 435.000
QB50P2 30 Jul 02:04:50 02:09:02 52° 292° (WNW) 02:13:12 145.880/145.840
POLYITAN 1 30 Jul 02:07:29 02:11:41 51° 292° (WNW) 02:15:50 437.675
ITUPSAT 1 30 Jul 02:08:19 02:12:46 40° 63° (ENE) 02:17:16 437.325
BEESAT 3 30 Jul 02:09:40 02:13:39 69° 40° (NE) 02:17:37 437.485
UNISAT 6 30 Jul 02:19:29 02:22:03 15° 311° (NW) 02:24:36 437.425
BEESAT 2 30 Jul 02:22:06 02:26:05 57° 37° (NE) 02:30:02 435.950
SPROUT 30 Jul 02:23:21 02:26:04 16° 273° (W) 02:28:49 437.525
ISS 30 Jul 02:24:33 02:27:20 25° 202° (SSW) 02:30:06 145.825
Cosmos 2491 30 Jul 02:32:18 02:36:44 14° 331° (NNW) 02:41:11 435.465 / 435.565
PCSat 30 Jul 02:33:04 02:38:11 39° 30° (NNE) 02:43:16 145.827
KKS-1 30 Jul 02:37:39 02:40:09 15° 50° (NE) 02:42:39 437.445
NANOSAT C BR1 30 Jul 02:48:02 02:51:38 26° 300° (WNW) 02:55:12 145.865
DUCHIFAT 1 30 Jul 02:50:44 02:54:19 26° 300° (WNW) 02:57:53 145.980
BUGSAT 1 30 Jul 02:51:38 02:55:42 44° 294° (WNW) 02:59:46 437.445
SWISSCUBE 30 Jul 02:59:19 03:04:07 79° 254° (WSW) 03:08:57 437.505
JAS-2 30 Jul 03:01:28 03:06:40 64° 292° (WNW) 03:12:13 435.910
GONETS M04 30 Jul 03:02:25 03:11:18 83° 77° (ENE) 03:20:10
TISAT 1 30 Jul 03:06:28 03:09:35 20° 270° (W) 03:12:45 437.305
STARS 30 Jul 03:07:31 03:10:03 15° 50° (NE) 03:12:34 437.465
Oscar 19 30 Jul 03:10:22 03:15:30 59° 102° (ESE) 03:20:37 437.125/150
AIST 2 30 Jul 03:11:26 03:15:05 28° 19° (NNE) 03:18:43 435.215
QB50P1 30 Jul 03:12:53 03:15:45 18° 306° (NW) 03:18:36 145.935-145.965
ITAMSAT 1 30 Jul 03:13:55 03:16:36 14° 84° (E) 03:19:16 435.822/435.867
Gurwin Techsat 1B 30 Jul 03:16:51 03:21:46 36° 95° (E) 03:26:38 435.225
POPSAT HIP 1 30 Jul 03:19:48 03:22:28 16° 307° (NW) 03:25:06 437.405
BEESAT 30 Jul 03:20:28 03:25:12 59° 259° (WSW) 03:29:57 436.000
Cosmos 2499 30 Jul 03:27:50 03:35:54 87° 79° (E) 03:43:19 435.465 / 435.565
MOZHAYETS 4 30 Jul 03:33:05 03:37:19 36° 63° (ENE) 03:41:33
AO-7 30 Jul 03:39:30 03:44:28 17° 81° (E) 03:49:25 29.400- 29.500
O/OREOS (USA 219) 30 Jul 03:41:12 03:43:41 14° 25° (NNE) 03:46:08 437.305
QB50P2 30 Jul 03:42:43 03:43:56 11° 313° (NW) 03:45:09 145.880/145.840
POLYITAN 1 30 Jul 03:45:23 03:46:34 11° 313° (NW) 03:47:44 437.675
ITUPSAT 1 30 Jul 03:46:11 03:50:40 38° 263° (W) 03:55:10 437.325
BEESAT 3 30 Jul 03:47:49 03:51:01 23° 240° (WSW) 03:54:11 437.485
BEESAT 2 30 Jul 04:00:13 04:03:44 30° 237° (WSW) 04:07:14 435.950
DANDE 30 Jul 04:01:30 04:03:48 14° 92° (E) 04:05:53 436.750
KKS-1 30 Jul 04:11:33 04:15:59 71° 70° (ENE) 04:20:28 437.445
PCSat 30 Jul 04:16:33 04:21:59 70° 233° (SW) 04:27:22 145.827
Cosmos 2491 30 Jul 04:38:51 04:38:58 10° 6° (N) 04:39:04 435.465 / 435.565
SWISSCUBE 30 Jul 04:40:10 04:42:44 14° 275° (W) 04:45:20 437.505
STARS 30 Jul 04:41:18 04:45:41 73° 71° (ENE) 04:50:09 437.465
JAS-2 30 Jul 04:47:55 04:50:58 16° 313° (NW) 04:54:06 435.910
CUSAT 1 30 Jul 04:49:07 04:52:26 85° 278° (W) 04:55:14 437.405
AIST 2 30 Jul 04:49:56 04:54:08 79° 41° (NE) 04:58:19 435.215
Oscar 19 30 Jul 04:50:07 04:54:35 30° 302° (WNW) 04:59:03 437.125/150
ITAMSAT 1 30 Jul 04:51:50 04:57:04 71° 104° (ESE) 05:02:14 435.822/435.867
Gurwin Techsat 1B 30 Jul 04:56:46 05:01:54 48° 296° (WNW) 05:06:59 435.225
GONETS M04 30 Jul 04:59:57 05:07:16 31° 281° (WNW) 05:14:36
CUBESAT XI-V 30 Jul 05:01:17 05:05:31 37° 64° (ENE) 05:09:45 437.345
BEESAT 30 Jul 05:03:13 05:04:02 10° 278° (W) 05:04:51 436.000
MOZHAYETS 4 30 Jul 05:10:09 05:14:29 39° 263° (W) 05:18:51
O/OREOS (USA 219) 30 Jul 05:20:01 05:24:19 41° 48° (NE) 05:28:38 437.305
HORYU 2 30 Jul 05:20:55 05:22:46 12° 84° (E) 05:24:36 437.375
Cosmos 2499 30 Jul 05:21:49 05:28:02 26° 283° (WNW) 05:33:54 435.465 / 435.565
AO-7 30 Jul 05:30:52 05:39:11 60° 104° (ESE) 05:47:23 29.400- 29.500
DANDE 30 Jul 05:41:53 05:46:24 69° 285° (WNW) 05:49:50 436.750
KKS-1 30 Jul 05:49:50 05:53:03 19° 271° (W) 05:56:18 437.445
RS-15 30 Jul 06:00:08 06:08:32 24° 98° (E) 06:17:10 29.354- 29.394
PCSat 30 Jul 06:01:15 06:04:29 16° 254° (WSW) 06:07:43 145.827
STRAND 1 30 Jul 06:13:48 06:17:43 22° 53° (NE) 06:21:38 437.568
STARS 30 Jul 06:19:27 06:22:34 19° 271° (W) 06:25:42 437.465
NOAA 18 30 Jul 06:21:34 06:22:42 11° 80° (E) 06:23:49 137.9125
AIST 2 30 Jul 06:29:01 06:32:12 21° 242° (WSW) 06:35:24 435.215
ITAMSAT 1 30 Jul 06:31:53 06:36:09 26° 305° (NW) 06:40:24 435.822/435.867
Cubesat XI-IV 30 Jul 06:33:23 06:35:59 14° 83° (E) 06:38:35 437.490
Cosmos 2491 30 Jul 06:34:36 06:40:41 20° 40° (NE) 06:46:44 435.465 / 435.565
Gurwin Techsat 1B 30 Jul 06:38:16 06:40:44 13° 318° (NW) 06:43:11 435.225
CUBESAT XI-V 30 Jul 06:38:37 06:42:55 38° 264° (W) 06:47:15 437.345
LilacSat-2 30 Jul 06:49:48 06:51:46 13° 86° (E) 06:53:45 437.200
CUTE-I 30 Jul 06:55:05 06:58:58 20° 88° (E) 07:02:48 437.470
HORYU 2 30 Jul 06:55:39 07:00:10 74° 105° (ESE) 07:04:38 437.375
O/OREOS (USA 219) 30 Jul 06:59:32 07:03:45 39° 249° (WSW) 07:07:58 437.305
NOAA 15 30 Jul 07:03:49 07:08:19 28° 93° (E) 07:12:48 137.62
BRITE-PL 30 Jul 07:08:12 07:12:41 38° 96° (E) 07:17:30 437.365/2234.400
SO-50 30 Jul 07:28:23 07:30:03 12° 109° (ESE) 07:31:42 436.795
